Weather History for Hamilton, OH

Change the Weather History Date:

Tuesday, April 29, 2014

  Actual Average (KCVG) Record (KCVG)
Temperature  
Mean Temperature 66 °F 59 °F  
Max Temperature 80 °F 69 °F 87 °F (1899)
Min Temperature 55 °F 48 °F 31 °F (1874)
Degree Days  
Heating Degree Days 0 7  
Month to date heating degree days 334  
Since 1 July heating degree days 4827  
Cooling Degree Days 2 1  
Month to date cooling degree days 17  
Year to date cooling degree days 17  
Growing Degree Days 16 (Base 50)    
Moisture  
Dew Point 58 °F    
Average Humidity 82    
Maximum Humidity 96    
Minimum Humidity 36    
Precipitation  
Precipitation 0.52 in 0.14 in 2.41 in (1996)
Month to date precipitation 3.75  
Year to date precipitation 13.52  
Snow  
Snow 0.00 in 0.00 in 0.00 in ()
Month to date snowfall 0.5  
Since 1 July snowfall 22.1  
Snow Depth -    
Sea Level Pressure  
Sea Level Pressure 29.68 in    
Wind  
Wind Speed 6 mph (SSW)    
Max Wind Speed 18 mph    
Max Gust Speed 32 mph    
Visibility 8 miles    
Events Rain , Thunderstorm    
T = Trace of Precipitation, MM = Missing Value Source: NWS Daily Summary

Daily Weather History Graph

Daily Weather History Graph

Search for Another Location

Airport:

Trip Planner

Search our weather history database for the weather conditions in past years. The results will help you decide how hot, cold, wet, or windy it might be!

Date:

Astronomy

Apr. 29, 2014 Rise Set
Actual Time 6:41 AM EDT 8:29 PM EDT
Civil Twilight 6:13 AM EDT 8:58 PM EDT
Nautical Twilight 5:38 AM EDT 9:33 PM EDT
Astronomical Twilight 5:00 AM EDT 10:11 PM EDT
Moon 6:59 AM EDT (4/29) 9:08 PM EDT (4/29)
Length of Visible Light 14h 45m
Length of Day
13h 47m
New Moon, 0% of the Moon is Illuminated
Apr 29
New Moon
May 6
First Quarter
May 14
Full
May 21
Last Quarter
May 28
New

Hourly Weather History & Observations

Time (EDT) Temp. Dew Point Humidity Pressure Visibility Wind Dir Wind Speed Gust Speed Precip Events Conditions
12:53 AM 63.0 °F 60.1 °F 90% 29.63 in 10.0 mi SE 9.2 mph - 0.03 in   Mostly Cloudy
1:53 AM 63.0 °F 60.1 °F 90% 29.61 in 10.0 mi Variable 5.8 mph - 0.00 in Rain Light Rain
2:07 AM 63.0 °F 60.1 °F 90% 29.61 in 8.0 mi Variable 4.6 mph - 0.02 in Rain Light Rain
2:15 AM 63.0 °F 61.0 °F 93% 29.62 in 7.0 mi Calm Calm - 0.03 in Rain Light Rain
2:25 AM 63.0 °F 61.0 °F 93% 29.61 in 6.0 mi Variable 4.6 mph - 0.04 in Rain Rain
2:41 AM 62.1 °F 61.0 °F 96% 29.59 in 3.0 mi Calm Calm - 0.10 in Rain Rain
2:50 AM 62.6 °F 60.8 °F 94% 29.59 in 4.0 mi Calm Calm - 0.13 in Rain Rain
2:53 AM 62.1 °F 61.0 °F 96% 29.58 in 4.0 mi ESE 3.5 mph - 0.13 in Rain Light Rain
3:53 AM 64.0 °F 61.0 °F 90% 29.55 in 10.0 mi Variable 3.5 mph - 0.00 in   Overcast
4:53 AM 64.0 °F 62.1 °F 93% 29.55 in 10.0 mi Variable 4.6 mph - N/A   Overcast
5:22 AM 64.0 °F 62.1 °F 93% 29.56 in 10.0 mi SW 4.6 mph - N/A   Overcast
5:53 AM 64.0 °F 62.1 °F 93% 29.55 in 10.0 mi Calm Calm - N/A   Overcast
6:04 AM 64.0 °F 62.1 °F 93% 29.56 in 10.0 mi South 3.5 mph - N/A   Overcast
6:27 AM 64.0 °F 61.0 °F 90% 29.58 in 10.0 mi Variable 5.8 mph - N/A   Mostly Cloudy
6:44 AM 63.0 °F 61.0 °F 93% 29.58 in 10.0 mi South 3.5 mph - N/A   Mostly Cloudy
6:53 AM 63.0 °F 61.0 °F 93% 29.57 in 10.0 mi Variable 3.5 mph - N/A   Scattered Clouds
7:53 AM 64.0 °F 62.1 °F 93% 29.58 in 9.0 mi Calm Calm - N/A   Scattered Clouds
9:17 AM 66.0 °F 61.0 °F 84% 29.62 in 10.0 mi SSW 10.4 mph - N/A   Mostly Cloudy
9:37 AM 66.0 °F 61.0 °F 84% 29.63 in 10.0 mi SSW 10.4 mph 18.4 mph N/A   Mostly Cloudy
9:53 AM 68.0 °F 61.0 °F 78% 29.62 in 10.0 mi South 9.2 mph 16.1 mph N/A   Mostly Cloudy
10:01 AM 68.0 °F 61.0 °F 78% 29.63 in 10.0 mi SSW 11.5 mph 17.3 mph N/A   Scattered Clouds
10:11 AM 68.0 °F 60.1 °F 76% 29.63 in 10.0 mi South 11.5 mph 18.4 mph N/A   Mostly Cloudy
10:53 AM 70.0 °F 60.1 °F 71% 29.65 in 10.0 mi South 10.4 mph 20.7 mph N/A   Mostly Cloudy
11:16 AM 71.1 °F 60.1 °F 68% 29.66 in 10.0 mi South 8.1 mph - N/A   Scattered Clouds
11:53 AM 72.0 °F 57.9 °F 61% 29.65 in 10.0 mi South 9.2 mph 18.4 mph N/A   Scattered Clouds
12:53 PM 73.9 °F 55.9 °F 53% 29.68 in 10.0 mi South 12.7 mph 23.0 mph N/A   Partly Cloudy
1:53 PM 77.0 °F 54.0 °F 45% 29.69 in 10.0 mi SSW 9.2 mph 18.4 mph N/A   Partly Cloudy
2:53 PM 78.1 °F 51.1 °F 39% 29.68 in 10.0 mi SSW 10.4 mph 19.6 mph N/A   Partly Cloudy
3:53 PM 77.0 °F 48.0 °F 36% 29.68 in 10.0 mi SW 10.4 mph 23.0 mph N/A   Clear
6:53 PM 64.0 °F 53.1 °F 67% 29.81 in 4.0 mi SSW 15.0 mph 24.2 mph 0.02 in Rain Rain
6:57 PM 62.1 °F 54.0 °F 75% 29.84 in 1.8 mi SW 10.4 mph 24.2 mph 0.03 in Rain Heavy Rain
7:08 PM 60.1 °F 55.0 °F 83% 29.85 in 2.0 mi WSW 9.2 mph 25.3 mph 0.07 in Rain Heavy Rain
7:23 PM 57.9 °F 53.1 °F 84% 29.74 in 7.0 mi WNW 18.4 mph 32.2 mph 0.10 in Rain Light Rain
7:30 PM 57.9 °F 53.1 °F 84% 29.76 in 10.0 mi West 9.2 mph 21.9 mph 0.10 in   Mostly Cloudy
7:53 PM 57.9 °F 53.1 °F 84% 29.82 in 10.0 mi WSW 9.2 mph - 0.10 in   Partly Cloudy
8:53 PM 59.0 °F 48.9 °F 69% 29.84 in 10.0 mi West 8.1 mph - 0.00 in   Overcast
9:53 PM 55.0 °F 53.1 °F 93% 29.85 in 7.0 mi SSE 4.6 mph - 0.05 in Rain , Thunderstorm Thunderstorms and Rain
10:16 PM 55.9 °F 53.1 °F 90% 29.88 in 4.0 mi Variable 6.9 mph - 0.06 in Rain , Thunderstorm Rain
10:25 PM 55.9 °F 53.1 °F 90% 29.89 in 6.0 mi SSE 8.1 mph - 0.07 in Rain Rain
10:53 PM 55.9 °F 53.1 °F 90% 29.87 in 10.0 mi Variable 6.9 mph - 0.13 in Rain Light Rain
11:53 PM 55.9 °F 53.1 °F 90% 29.83 in 7.0 mi Calm Calm - 0.06 in Rain Rain